• In United Kingdom
  • List of Countries
  • For 7 days
  • Water Temperature
  • Satellite Maps
  • Weather Map
  • Weather Widgets
  • user-avatar
    Login

    Hourly Weather Ordino

    Today, 25 February, Sunday

    Time Temperature Precipitation Wind Pressure Humidity
    00:00 -6°C° 0 mm 2 mps 625 mmHg 78%
    01:00 -6°C° 0 mm 2 mps 625 mmHg 76%
    02:00 -6°C° 0 mm 2 mps 625 mmHg 74%
    03:00 -4°C° 0 mm 1 mps 625 mmHg 72%
    04:00 -6°C° 0 mm 2 mps 625 mmHg 71%
    05:00 -6°C° 0 mm 2 mps 625 mmHg 70%
    06:00 -6°C° 0 mm 2 mps 625 mmHg 69%
    07:00 -4°C° 0 mm 2 mps 626 mmHg 66%
    08:00 -2°C° 0 mm 2 mps 626 mmHg 62%
    09:00 +2°C° 0 mm 1 mps 627 mmHg 59%
    10:00 +2°C° 0 mm 2 mps 627 mmHg 58%
    11:00 +4°C° 0 mm 2 mps 628 mmHg 57%
    12:00 +5°C° 0 mm 2 mps 628 mmHg 56%
    13:00 +5°C° 0 mm 2 mps 628 mmHg 58%
    14:00 +5°C° 0 mm 2 mps 627 mmHg 60%
    15:00 +4°C° 0 mm 2 mps 627 mmHg 62%
    16:00 +2°C° 0 mm 2 mps 627 mmHg 70%
    17:00 -1°C° 0 mm 2 mps 626 mmHg 77%
    18:00 -3°C° 0 mm 2 mps 625 mmHg 85%
    19:00 -3°C° 0 mm 2 mps 625 mmHg 85%
    20:00 -4°C° 0 mm 2 mps 626 mmHg 86%
    21:00 -5°C° 0 mm 2 mps 626 mmHg 86%
    22:00 -5°C° 0 mm 2 mps 626 mmHg 84%
    23:00 -5°C° 0 mm 2 mps 626 mmHg 81%

    Tomorrow, 26 February, Monday

    Time Temperature Precipitation Wind Pressure Humidity
    00:00 -6°C° 0 mm 2 mps 626 mmHg 78%
    01:00 -6°C° 0 mm 2 mps 625 mmHg 77%
    02:00 -6°C° 0 mm 2 mps 625 mmHg 76%
    03:00 -6°C° 0 mm 2 mps 625 mmHg 74%
    04:00 -7°C° 0 mm 2 mps 625 mmHg 73%
    05:00 -7°C° 0 mm 2 mps 625 mmHg 72%
    06:00 -7°C° 0 mm 2 mps 625 mmHg 70%
    07:00 -6°C° 0 mm 2 mps 625 mmHg 66%
    08:00 -4°C° 0 mm 2 mps 626 mmHg 61%
    09:00 0°C° 0 mm 1 mps 627 mmHg 57%
    10:00 -1°C° 0 mm 2 mps 627 mmHg 55%
    11:00 +1°C° 0 mm 2 mps 627 mmHg 54%
    12:00 +1°C° 0 mm 2 mps 627 mmHg 53%
    13:00 +1°C° 0 mm 2 mps 626 mmHg 55%
    14:00 -1°C° 0 mm 3 mps 625 mmHg 58%
    15:00 -1°C° 0 mm 3 mps 625 mmHg 61%
    16:00 -4°C° 0.1 mm 3 mps 624 mmHg 67%
    17:00 -4°C° 0.1 mm 2 mps 624 mmHg 73%
    18:00 -6°C° 0.1 mm 2 mps 623 mmHg 79%
    19:00 -7°C° 0.2 mm 2 mps 624 mmHg 79%
    20:00 -8°C° 0.2 mm 2 mps 624 mmHg 79%
    21:00 -8°C° 0.2 mm 2 mps 624 mmHg 79%
    22:00 -9°C° 0.3 mm 2 mps 623 mmHg 79%
    23:00 -9°C° 0.3 mm 2 mps 623 mmHg 79%

    Day after tomorrow, 27 February, Tuesday

    Time Temperature Precipitation Wind Pressure Humidity
    00:00 -9°C° 0.3 mm 2 mps 623 mmHg 80%
    01:00 -10°C° 0.2 mm 2 mps 623 mmHg 78%
    02:00 -10°C° 0.2 mm 2 mps 623 mmHg 76%
    03:00 -10°C° 0.2 mm 2 mps 623 mmHg 75%
    04:00 -12°C° 0 mm 2 mps 623 mmHg 73%
    05:00 -10°C° 0 mm 1 mps 622 mmHg 72%
    06:00 -11°C° 0 mm 1 mps 622 mmHg 70%
    07:00 -12°C° 0 mm 2 mps 623 mmHg 63%
    08:00 -9°C° 0 mm 2 mps 623 mmHg 55%
    09:00 -8°C° 0 mm 2 mps 624 mmHg 48%
    10:00 -7°C° 0 mm 2 mps 624 mmHg 45%
    11:00 -6°C° 0 mm 2 mps 624 mmHg 43%
    12:00 -5°C° 0 mm 2 mps 625 mmHg 41%
    13:00 -5°C° 0 mm 2 mps 624 mmHg 44%
    14:00 -5°C° 0 mm 2 mps 624 mmHg 47%
    15:00 -5°C° 0 mm 2 mps 624 mmHg 49%
    16:00 -4°C° 0.1 mm 1 mps 624 mmHg 56%
    17:00 -6°C° 0.1 mm 1 mps 623 mmHg 62%
    18:00 -8°C° 0.1 mm 1 mps 623 mmHg 69%
    19:00 -8°C° 0.1 mm 1 mps 623 mmHg 70%
    20:00 -8°C° 0.1 mm 1 mps 623 mmHg 72%
    21:00 -9°C° 0.1 mm 1 mps 624 mmHg 74%
    22:00 -9°C° 0 mm 1 mps 624 mmHg 74%
    23:00 -9°C° 0 mm 1 mps 623 mmHg 75%

    28 February, Wednesday

    Time Temperature Precipitation Wind Pressure Humidity
    00:00 -9°C° 0 mm 1 mps 623 mmHg 76%
    01:00 -9°C° 0 mm 1 mps 623 mmHg 75%
    02:00 -9°C° 0 mm 1 mps 623 mmHg 73%
    03:00 -9°C° 0 mm 1 mps 622 mmHg 72%
    04:00 -9°C° 0.1 mm 1 mps 622 mmHg 73%
    05:00 -9°C° 0.1 mm 2 mps 622 mmHg 73%
    06:00 -9°C° 0.1 mm 2 mps 622 mmHg 74%
    07:00 -8°C° 0.6 mm 2 mps 622 mmHg 77%
    08:00 -8°C° 0.6 mm 3 mps 622 mmHg 79%
    09:00 -7°C° 0.6 mm 3 mps 623 mmHg 82%
    10:00 -7°C° 0.9 mm 4 mps 622 mmHg 81%
    11:00 -7°C° 0.9 mm 4 mps 622 mmHg 81%
    12:00 -5°C° 0.9 mm 4 mps 622 mmHg 81%
    13:00 -4°C° 0.9 mm 4 mps 621 mmHg 81%
    14:00 -4°C° 0.9 mm 4 mps 621 mmHg 81%
    15:00 -3°C° 0.9 mm 4 mps 620 mmHg 82%
    16:00 -3°C° 0.9 mm 4 mps 620 mmHg 84%
    17:00 -3°C° 0.9 mm 4 mps 619 mmHg 87%
    18:00 -3°C° 0.9 mm 4 mps 619 mmHg 90%
    19:00 -2°C° 0.9 mm 3 mps 619 mmHg 91%
    20:00 -2°C° 0.9 mm 3 mps 619 mmHg 91%
    21:00 -1°C° 0.9 mm 3 mps 619 mmHg 92%
    22:00 -1°C° 0.6 mm 3 mps 619 mmHg 93%
    23:00 -1°C° 0.6 mm 3 mps 619 mmHg 93%

    1 March, Thursday

    Time Temperature Precipitation Wind Pressure Humidity
    00:00 -1°C° 0.6 mm 3 mps 618 mmHg 94%
    01:00 -1°C° 0.2 mm 3 mps 618 mmHg 94%
    02:00 -1°C° 0.2 mm 3 mps 618 mmHg 94%
    03:00 -1°C° 0.2 mm 2 mps 617 mmHg 94%
    04:00 -2°C° 0 mm 2 mps 617 mmHg 93%
    05:00 -2°C° 0 mm 2 mps 617 mmHg 92%
    06:00 -2°C° 0 mm 2 mps 617 mmHg 90%
    07:00 -1°C° 0 mm 2 mps 617 mmHg 89%
    08:00 0°C° 0 mm 3 mps 618 mmHg 88%
    09:00 +2°C° 0 mm 3 mps 619 mmHg 87%
    10:00 +2°C° 0.1 mm 3 mps 619 mmHg 86%
    11:00 +3°C° 0.1 mm 3 mps 619 mmHg 86%
    12:00 +3°C° 0.1 mm 3 mps 619 mmHg 85%
    13:00 +3°C° 0.8 mm 3 mps 618 mmHg 87%
    14:00 +3°C° 0.8 mm 3 mps 618 mmHg 89%
    15:00 +2°C° 0.8 mm 3 mps 617 mmHg 91%
    16:00 +2°C° 0.7 mm 3 mps 617 mmHg 92%
    17:00 +1°C° 0.7 mm 3 mps 617 mmHg 93%
    18:00 +1°C° 0.7 mm 3 mps 617 mmHg 94%
    19:00 +1°C° 0.4 mm 3 mps 617 mmHg 94%
    20:00 +1°C° 0.4 mm 2 mps 617 mmHg 93%
    21:00 +1°C° 0.4 mm 2 mps 617 mmHg 93%
    22:00 +1°C° 0.2 mm 2 mps 617 mmHg 94%
    23:00 +1°C° 0.2 mm 2 mps 617 mmHg 94%

    2 March, Friday

    Time Temperature Precipitation Wind Pressure Humidity
    00:00 +1°C° 0.2 mm 2 mps 618 mmHg 95%
    01:00 +1°C° 0 mm 1 mps 618 mmHg 95%
    02:00 +1°C° 0 mm 1 mps 618 mmHg 94%
    03:00 0°C° 0 mm 1 mps 618 mmHg 94%
    04:00 0°C° 0 mm 1 mps 618 mmHg 93%
    05:00 0°C° 0 mm 1 mps 619 mmHg 92%
    06:00 0°C° 0 mm 1 mps 619 mmHg 91%
    07:00 +1°C° 0 mm 1 mps 620 mmHg 89%
    08:00 +3°C° 0 mm 1 mps 622 mmHg 87%
    09:00 +4°C° 0 mm 1 mps 623 mmHg 86%
    10:00 +5°C° 0 mm 1 mps 623 mmHg 84%
    11:00 +4°C° 0 mm 2 mps 623 mmHg 81%
    12:00 +5°C° 0 mm 2 mps 624 mmHg 79%
    13:00 +5°C° 0 mm 2 mps 623 mmHg 80%
    14:00 +5°C° 0 mm 2 mps 623 mmHg 81%
    15:00 +5°C° 0 mm 2 mps 623 mmHg 81%
    16:00 +2°C° 0.1 mm 3 mps 622 mmHg 83%
    17:00 +1°C° 0.1 mm 3 mps 622 mmHg 85%
    18:00 0°C° 0.1 mm 3 mps 621 mmHg 87%
    19:00 0°C° 0.8 mm 3 mps 621 mmHg 89%
    20:00 +1°C° 0.8 mm 2 mps 622 mmHg 90%
    21:00 +2°C° 0.8 mm 2 mps 622 mmHg 92%
    22:00 +1°C° 0 mm 2 mps 622 mmHg 92%
    23:00 -1°C° 0 mm 2 mps 622 mmHg 93%
    Show more